Flight Track Log - Related Links

Times and Time Zones

All times are in EDT time to prevent confusion due to time zone crossing. See the ASA241 flight status page for this flight to view local times or setup timezone preferences in your user account.

Time Position Orientation Groundspeed Altitude Reporting Facility
EDT Latitude Longitude Course Direction KTS MPH feet Rate Location/Type
Sat 07:52:06 PM 32.0594 -114.5547 303° West 424 488 34,000  Level Los Angeles Center
Sat 07:53:07 PM 32.1367 -114.6950 303° West 425 489 34,000  Level Los Angeles Center
Sat 07:54:09 PM 32.1994 -114.8114 303° West 423 487 34,000  Level Los Angeles Center
Sat 07:55:10 PM 32.2631 -114.9283 303° West 424 488 34,000  Level Los Angeles Center
Sat 07:56:24 PM 32.3261 -115.0456 303° West 422 486 34,000  Level Los Angeles Center
Sat 07:57:26 PM 32.4003 -115.1850 302° West 419 482 34,000  Level Los Angeles Center
Sat 07:58:27 PM 32.4703 -115.3161 302° West 417 480 34,000  Level Los Angeles Center
Sat 07:59:29 PM 32.5328 -115.4317 303° West 418 481 34,000  Level Los Angeles Center
Sat 08:00:30 PM 32.5944 -115.5467 302° West 415 478 34,000  Level Los Angeles Center
Sat 08:01:32 PM 32.6561 -115.6606 303° West 412 474 34,000  Level Los Angeles Center
Sat 08:02:33 PM 32.7172 -115.7750 302° West 412 474 34,000  Level Los Angeles Center
Sat 08:03:35 PM 32.7775 -115.8906 302° West 413 475 34,000  Level Los Angeles Center
Sat 08:04:36 PM 32.8386 -116.0053 302° West 412 474 34,000 -488 Level Los Angeles Center
Sat 08:05:38 PM 32.9122 -116.1464 302° West 421 484 33,000 -1,902 Descending Los Angeles Center
Sat 08:06:39 PM 32.9758 -116.2664 302° West 423 487 30,100 -2,927 Descending Los Angeles Center
Sat 08:07:41 PM 33.0403 -116.3883 302° West 434 499 27,000 -2,683 Descending Los Angeles Center
Sat 08:08:42 PM 33.0972 -116.5000 301° West 426 490 24,600 -1,707 Descending Los Angeles Center
Sat 08:09:44 PM 33.1458 -116.6194 296° West 411 473 23,500 -823 Descending Los Angeles Center
Sat 08:10:46 PM 33.1647 -116.7794 278° West 411 473 22,900 -1,951 Descending Los Angeles Center
Sat 08:11:47 PM 33.1811 -116.9150 278° West 414 476 19,500 -3,268 Descending Los Angeles Center
Sat 08:12:49 PM 33.1989 -117.0572 279° West 431 496 16,200 -3,000 Descending Los Angeles Center
Sat 08:13:35 PM 33.2167 -117.1833 280° West 414 476 14,100 -2,220 Descending Southern California TRACON
Sat 08:14:29 PM 33.2333 -117.2833 281° West 398 458 12,500 -1,050 Descending Southern California TRACON
Sat 08:15:35 PM 33.2333 -117.4167 270° West 374 430 12,000 -248 Descending Southern California TRACON
Sat 08:16:30 PM 33.2500 -117.5333 280° West 343 395 12,000 -632 Level Southern California TRACON
Sat 08:17:29 PM 33.3000 -117.6167 306° West 337 388 10,800 -1,047 Descending Southern California TRACON
Sat 08:17:56 PM 33.3267 -117.6322 334° Northwest 339 390 10,500 -809 Descending Los Angeles Center
Sat 08:18:58 PM 33.3922 -117.6922 323° Northwest 308 354 9,600 -960 Descending Los Angeles Center
Sat 08:19:36 PM 33.4333 -117.7333 320° Northwest 288 331 8,900 -1,041 Descending Southern California TRACON
Sat 08:20:36 PM 33.5000 -117.8000 320° Northwest 283 326 7,900 -800 Descending Southern California TRACON
Sat 08:21:36 PM 33.5667 -117.8500 328° Northwest 282 325 7,300 -628 Descending Southern California TRACON
Sat 08:22:02 PM 33.5911 -117.8758 319° Northwest 281 323 7,000 -273 Descending Los Angeles Center
Sat 08:23:04 PM 33.6528 -117.9325 323° Northwest 281 323 6,900  Descending Los Angeles Center
Sat 08:23:30 PM 33.6833 -117.9667 317° Northwest 277 319 7,000 65 Climbing Southern California TRACON
Sat 08:24:36 PM 33.7500 -118.0167 328° Northwest 268 308 7,000  Level Southern California TRACON
Sat 08:25:36 PM 33.8000 -118.0667 320° Northwest 258 297 7,000 -526 Level Southern California TRACON
Sat 08:26:30 PM 33.8667 -118.1000 337° Northwest 250 288 6,000 -1,158 Descending Southern California TRACON
Sat 08:27:30 PM 33.9167 -118.1500 320° Northwest 250 288 4,800 -1,129 Descending Southern California TRACON
Sat 08:28:11 PM 33.9506 -118.1911 315° West 241 277 4,100 -1,165 Descending Los Angeles Center
Sat 08:29:13 PM 33.9517 -118.2622 271° West 223 257 2,800 -1,171 Descending Los Angeles Center
Sat 08:30:14 PM 33.9436 -118.3225 261° West 201 231 1,700 -1,122 Descending Los Angeles Center
Sat 08:31:16 PM 33.9400 -118.3689 265° West 163 188 500 -732 Descending Los Angeles Center
Sat 08:32:17 PM 33.9736 -118.4247 306° West 184 212 200 -295 Descending Los Angeles Center
Sat 08:34:00 PM 33.9425 -118.4081 296° West  Level Estimated

Login

Don't have an account? Register now (free) for customized features, flight alerts, and more!